Location: Bidwell Hollow
(37.7387°N, 90.1707°W)
Time: 14:32:23
(UTC+00:00)

Tiros 1 despin weight - Pass Details

Date: 20 May 2026
Orbit: 554 x 591 km, 48.2° (Epoch: 6 June)

Event Time Altitude Azimuth Distance (km) Brightness Sun altitude
Rises 07:10:38 0° 190° (S) 2,777 - -29.7°
Reaches altitude 10° 07:13:43 10° 167° (SSE) 1,875 - -29.5°
Maximum altitude 07:16:12 15° 131° (SE) 1,562 - -29.3°
Drops below altitude 10° 07:18:41 10° 96° (E) 1,867 - -29.2°
Exits shadow 07:18:54 - 94° (E) 1,916 ? -29.1°
Sets 07:21:44 0° 73° (ENE) 2,760 ? -28.9°
